[[{"header":{"parameterUnit":"m.s-1","parameterCategory":1,"la1":30.2991,"la2":30.254,"lo1":-89.0895,"lo2":-89.0444,"dy":0.0017,"dx":0.0017,"nx":28,"ny":28,"refTime":"2023-06-21T21:00:00:Z","depth":0,"parameterNumber":2,"parameterNumberName":"U-component_of_WINDS"},"data":[0,0,0,0,0,0,0,0,0,0,0,0,0,0,0,0,0,0,0,0,0,0,0,0,0,0,0,0,0,0,0,0,0,0,0,0,0,0,0,0,0,0,0,0,0,0,0,0,0,0,0,0,0,0,0,0,0,0,1.9814,1.9815,0,1.9917,1.9918,1.9919,1.9914,1.9913,1.9911,1.991,2.0021,2.0025,2.0029,0,0,0,0,0,0,0,0,0,0,0,0,0,1.9619,1.9622,1.9814,1.9815,1.9816,1.9917,1.9918,1.992,1.9915,1.9913,1.9911,1.9909,2.002,2.0025,2.003,0,0,0,0,0,0,0,0,0,0,0,0,0,1.9711,1.9624,1.9814,1.9826,1.9828,1.9916,1.9918,1.992,1.9915,1.9913,1.991,1.9908,2.0018,2.0024,2.0031,2.0115,0,0,2.005,2.0053,0,0,0,0,0,0,0,0,1.9706,1.9718,1.9823,1.9825,1.9828,1.99,1.989,1.9986,1.9915,1.9882,1.991,1.9907,1.9983,1.9992,2.0017,2.012,2.0125,2.0051,2.0055,2.0058,2.006,0,0,0,0,0,0,0,1.9699,1.9714,1.9855,1.9824,1.9827,1.9828,1.9839,1.9908,1.9944,1.9885,1.9885,1.9897,1.9984,2.001,2.0019,2.0127,2.0051,2.0057,2.0061,2.0063,2.0306,2.0309,0,0,0,0,0,0,1.969,1.9708,1.9852,1.9858,1.976,1.9833,1.9845,1.9879,1.9943,1.9951,1.9898,1.9896,2.0,2.0012,2.0023,2.0127,2.0058,2.0064,2.0068,2.0304,2.0307,2.0309,0,0,0,0,0,0,1.9685,1.9702,1.9847,1.9783,1.9802,1.9839,1.9877,1.9883,1.9909,1.9953,1.996,1.9918,1.9999,2.0014,2.0092,2.013,2.0067,2.0073,2.0301,2.0305,2.0308,2.0334,0,0,0,0,0,0,1.968,1.9701,1.9732,1.9784,1.9805,1.9913,1.988,1.9886,1.9919,1.9917,1.9974,1.9981,1.9998,2.0082,2.0099,2.0138,2.0078,2.0297,2.0302,2.0307,2.033,2.0338,2.0346,0,0,0,0,0,1.9673,1.9736,1.9734,1.9751,1.9844,1.9915,1.9928,1.9944,1.9922,1.9955,1.9984,1.9979,2.0123,2.009,2.0109,2.0151,2.0295,2.0301,2.0307,2.0327,2.0337,2.0345,0,0,0,0,0,0,1.969,1.9743,1.9741,1.9823,1.9864,1.9914,1.9956,1.9955,2.0005,2.0001,2.0021,2.0034,2.0113,2.014,2.0102,2.0237,2.0207,2.0216,2.0216,2.0226,2.0233,2.0225,2.0083,0,0,0,0,0,1.9703,1.9754,1.9799,1.9867,1.9887,1.9918,1.9949,1.9959,2.0003,2.0021,2.0056,2.0101,2.0156,2.0193,2.0246,2.0334,2.0347,2.0372,2.038,2.0386,2.0394,2.0443,2.0455,2.0328,2.0328,2.0328,0,0,1.9731,1.9766,1.9797,1.9871,1.9904,1.9958,1.9933,1.9991,2.0032,2.0031,2.0106,2.0133,2.0185,2.0269,2.0307,2.0294,2.0432,2.0393,2.0398,2.0403,2.045,2.0462,2.0473,2.0332,2.0332,2.0331,0,0,1.9809,1.984,1.9901,1.9934,1.9984,2.0004,2.0019,2.0069,2.0087,2.0162,2.0162,2.0213,2.0307,2.0344,2.0376,2.0469,2.0467,2.0486,2.0526,2.0574,2.0584,2.0593,2.0627,2.0638,2.0494,2.0494,2.0494,0,1.9838,1.9917,1.9932,1.9991,2.0024,2.0023,2.0085,2.0118,2.0184,2.0208,2.0191,2.031,2.0345,2.0437,2.046,2.0485,2.0503,2.0479,2.0581,2.059,2.0599,2.0631,2.0644,2.0496,2.0496,2.0495,2.0495,0,1.9951,2.0006,2.0049,2.0111,2.0149,2.0209,2.0234,2.0271,2.0278,2.03,2.0378,2.0419,2.0481,2.0504,2.0512,2.0598,2.0588,2.0576,2.0547,2.0613,2.0643,2.0656,2.0499,2.0498,2.0497,2.0497,0,0,2.0042,2.0111,2.0126,2.0155,2.021,2.0254,2.0316,2.0374,2.0406,2.0452,2.0504,2.0585,2.0574,2.0609,2.0621,2.0663,2.0735,2.0646,2.0648,2.0661,2.0833,2.0842,2.0855,2.0734,2.0736,2.0738,2.0829,0,2.0126,2.0232,2.0247,2.0341,2.0394,2.0394,2.0448,2.0489,2.0512,2.0561,2.0587,2.0643,2.0624,2.0646,2.0687,2.0717,2.0769,2.0711,2.0784,2.0786,2.0771,2.0871,2.0881,2.0964,2.0841,2.0843,2.0844,0,2.0238,2.0285,2.0384,2.0432,2.0455,2.0502,2.0558,2.0604,2.0652,2.0665,2.0705,2.0712,2.0777,2.0744,2.0835,2.0795,2.0826,2.0845,2.0849,2.0856,2.0819,2.0882,2.0991,2.1004,2.0863,2.0862,2.0861,0,2.0295,2.0383,2.0454,2.0478,2.0537,2.057,2.0596,2.0641,2.0676,2.0725,2.0748,2.0805,2.0837,2.0882,2.0904,2.0878,2.0994,2.0963,2.1008,2.1007,2.1032,2.103,2.1148,2.1052,2.1052,2.1052,2.1051,0,2.0387,2.0447,2.048,2.0523,2.0592,2.061,2.0678,2.0704,2.0744,2.0793,2.0799,2.0846,2.0872,2.0924,2.0942,2.1015,2.1029,2.1043,2.1047,2.1043,2.1041,2.1063,2.1058,2.1055,2.1054,2.1054,2.1053,0,2.0461,2.0485,2.0562,2.0612,2.0626,2.0674,2.0717,2.076,2.0783,2.0846,2.0862,2.0898,2.0959,2.0986,2.1061,2.1074,2.1157,2.1157,2.114,2.1141,2.1185,2.118,2.1321,2.134,2.1232,2.1233,2.1234,0,2.0518,2.0564,2.0618,2.0651,2.0678,2.0731,2.0766,2.0787,2.0824,2.0881,2.0918,2.0978,2.1028,2.1126,2.116,2.1218,2.1219,2.1265,2.1228,2.1222,2.122,2.1217,2.1222,2.1271,2.1272,2.1273,2.1274,0,2.0616,2.0626,2.0675,2.073,2.0771,2.0815,2.0858,2.0885,2.0913,2.0955,2.1016,2.1054,2.1131,2.1191,2.1252,2.1281,2.1283,2.1285,2.1299,2.1294,2.1282,2.1289,2.1158,2.1282,2.1281,2.1281,2.128,2.128,2.0684,2.0725,2.0769,2.0825,2.0859,2.09,2.0942,2.097,2.1021,2.1084,2.1094,2.116,2.1207,2.1288,2.1319,2.1372,2.1361,2.1381,2.1386,2.139,2.1393,2.1274,2.1384,2.1383,2.1383,2.1383,2.1383,0,2.0782,2.0811,2.0861,2.0921,2.0965,2.0961,2.1009,2.1047,2.1104,2.1147,2.1196,2.1267,2.1326,2.1365,2.1425,2.146,2.1462,2.1475,2.1472,2.1479,2.1399,2.1381,2.1472,2.1472,2.1472,2.1472,2.1472,2.1472,2.0838,2.0908,2.0923,2.1011,2.104,2.1103,2.1131,2.1169,2.1203,2.1282,2.133,2.1355,2.1397,2.146,2.1514,2.1525,2.1546,2.156,2.1569,2.1494,2.1485,2.1476,2.1459,2.1564,2.1564,2.1645,2.1645,2.1646]},{"header":{"parameterUnit":"m.s-1","parameterCategory":1,"la1":30.2991,"la2":30.254,"lo1":-89.0895,"lo2":-89.0444,"dy":0.0017,"dx":0.0017,"nx":28,"ny":28,"refTime":"2023-06-21T21:00:00:Z","depth":0,"parameterNumber":3,"parameterNumberName":"V-component_of_WINDS"},"data":[0,0,0,0,0,0,0,0,0,0,0,0,0,0,0,0,0,0,0,0,0,0,0,0,0,0,0,0,0,0,0,0,0,0,0,0,0,0,0,0,0,0,0,0,0,0,0,0,0,0,0,0,0,0,0,0,0,0,3.9437,3.9438,0,3.9484,3.9484,3.9485,3.9502,3.9502,3.9502,3.9502,3.9544,3.9545,3.9546,0,0,0,0,0,0,0,0,0,0,0,0,0,3.9357,3.9358,3.9437,3.9438,3.9439,3.9484,3.9484,3.9485,3.9502,3.9502,3.9502,3.9502,3.9543,3.9545,3.9546,0,0,0,0,0,0,0,0,0,0,0,0,0,3.9396,3.9358,3.9437,3.9453,3.9455,3.9483,3.9484,3.9485,3.9502,3.9502,3.9502,3.9501,3.9543,3.9544,3.9546,3.9562,0,0,3.9552,3.9553,0,0,0,0,0,0,0,0,3.9394,3.9399,3.945,3.9452,3.9454,3.9487,3.9471,3.951,3.9502,3.9484,3.9502,3.9501,3.9524,3.9528,3.9537,3.9564,3.9565,3.9552,3.9553,3.9554,3.9555,0,0,0,0,0,0,0,3.9391,3.9397,3.9455,3.945,3.9453,3.9455,3.946,3.9479,3.9504,3.9485,3.9487,3.9492,3.9525,3.9535,3.9538,3.9566,3.9552,3.9554,3.9555,3.9556,3.9605,3.9605,0,0,0,0,0,0,3.9387,3.9395,3.9454,3.9457,3.9423,3.9456,3.9462,3.9476,3.9504,3.9509,3.9492,3.9493,3.9532,3.9536,3.9539,3.9558,3.9554,3.9556,3.9557,3.9605,3.9605,3.9605,0,0,0,0,0,0,3.9385,3.9392,3.9452,3.9426,3.9434,3.9458,3.9474,3.9477,3.9487,3.951,3.9514,3.9498,3.9532,3.9537,3.9556,3.956,3.9557,3.9558,3.9604,3.9605,3.9605,3.9596,0,0,0,0,0,0,3.9382,3.9391,3.9399,3.9426,3.9435,3.947,3.9474,3.9478,3.9491,3.9492,3.9516,3.952,3.9532,3.9553,3.9558,3.9562,3.956,3.9604,3.9605,3.9605,3.9596,3.9596,3.9596,0,0,0,0,0,3.9379,3.9394,3.9399,3.9406,3.9446,3.947,3.9475,3.9491,3.9491,3.9498,3.9512,3.9519,3.9558,3.9555,3.956,3.9565,3.9604,3.9604,3.9605,3.9596,3.9596,3.9596,0,0,0,0,0,0,3.9365,3.9398,3.9404,3.9429,3.9447,3.9473,3.9483,3.949,3.9508,3.9508,3.9524,3.953,3.9547,3.9558,3.9553,3.958,3.9581,3.9583,3.9573,3.9573,3.9573,3.957,3.9561,0,0,0,0,0,3.9365,3.9384,3.9411,3.9429,3.9438,3.9459,3.947,3.948,3.9499,3.9506,3.9522,3.9538,3.9554,3.9564,3.958,3.9597,3.9602,3.9603,3.9603,3.9603,3.9604,3.9612,3.9613,3.9607,3.9607,3.9607,0,0,3.9365,3.9385,3.9396,3.9427,3.9442,3.9459,3.9465,3.9483,3.9495,3.9508,3.9527,3.9539,3.9558,3.9576,3.9584,3.9585,3.9606,3.9603,3.9603,3.9604,3.9613,3.9613,3.9614,3.9607,3.9607,3.9607,0,0,3.9373,3.9391,3.9408,3.9422,3.9446,3.9459,3.9463,3.9488,3.9496,3.9516,3.9526,3.9539,3.9566,3.9579,3.9589,3.9598,3.9605,3.9603,3.9602,3.961,3.9611,3.9611,3.9613,3.9614,3.9604,3.9604,3.9604,0,3.9369,3.9397,3.9415,3.9432,3.9444,3.9458,3.9473,3.9486,3.9512,3.9519,3.9521,3.9554,3.9568,3.9588,3.959,3.9598,3.9601,3.9601,3.9609,3.961,3.9611,3.9613,3.9614,3.9603,3.9603,3.9604,3.9604,0,3.939,3.9409,3.9419,3.9446,3.9459,3.9475,3.9493,3.9503,3.9512,3.9524,3.9542,3.9559,3.9577,3.9583,3.9591,3.9603,3.9603,3.9607,3.9608,3.9611,3.9613,3.9614,3.9603,3.9603,3.9603,3.9603,0,0,3.9392,3.9427,3.943,3.9442,3.9467,3.9481,3.9496,3.9516,3.9524,3.954,3.9552,3.9574,3.9577,3.9588,3.9597,3.9604,3.9609,3.9607,3.9607,3.9606,3.9622,3.9619,3.962,3.9613,3.9613,3.9613,3.962,0,3.9403,3.9433,3.9448,3.9471,3.9487,3.9499,3.9512,3.9527,3.9538,3.9552,3.9563,3.9578,3.9581,3.9588,3.9595,3.9607,3.9612,3.9607,3.9622,3.9623,3.9618,3.9621,3.9619,3.9624,3.9621,3.9621,3.9621,0,3.942,3.9438,3.9463,3.9484,3.9491,3.9503,3.9521,3.9535,3.9551,3.9558,3.957,3.9579,3.9592,3.9593,3.9611,3.9606,3.9613,3.962,3.962,3.9622,3.9622,3.9623,3.9627,3.9627,3.9623,3.9623,3.9623,0,3.9417,3.9447,3.9466,3.9475,3.9501,3.9508,3.9519,3.9536,3.9546,3.9561,3.9567,3.9583,3.9591,3.9602,3.9614,3.9613,3.963,3.9632,3.9635,3.9635,3.9638,3.9638,3.9643,3.9643,3.9643,3.9643,3.9643,0,3.9428,3.9442,3.9465,3.9476,3.9491,3.9507,3.9521,3.9532,3.9546,3.9558,3.9568,3.9579,3.9594,3.9605,3.9614,3.9627,3.9631,3.9636,3.9638,3.9635,3.9634,3.964,3.9639,3.9643,3.9643,3.9643,3.9643,0,3.9428,3.9444,3.9464,3.9487,3.9493,3.9503,3.9521,3.9531,3.9542,3.9557,3.9561,3.9578,3.9591,3.9604,3.9622,3.9628,3.9641,3.9644,3.9636,3.9637,3.964,3.9639,3.9648,3.965,3.9649,3.9649,3.9649,0,3.9433,3.9445,3.9468,3.9478,3.9489,3.9503,3.9514,3.9528,3.9538,3.9557,3.9564,3.9579,3.9592,3.9613,3.9626,3.9639,3.9642,3.9644,3.9644,3.964,3.9641,3.964,3.9641,3.9644,3.9644,3.9644,3.9644,0,3.944,3.9447,3.9463,3.9481,3.9493,3.9507,3.9522,3.9528,3.9545,3.9555,3.957,3.958,3.9599,3.9613,3.9627,3.9636,3.9642,3.9644,3.9645,3.9642,3.9637,3.9639,3.9635,3.9643,3.9644,3.9644,3.9644,3.9644,3.9443,3.9453,3.9471,3.9487,3.95,3.9512,3.9522,3.9535,3.9548,3.9565,3.9572,3.9587,3.9601,3.9621,3.963,3.964,3.9641,3.9644,3.9644,3.9645,3.9644,3.9635,3.9643,3.9643,3.9643,3.9643,3.9643,0,3.945,3.9462,3.9477,3.9497,3.9509,3.9515,3.953,3.9539,3.9553,3.9566,3.9578,3.9594,3.9608,3.9621,3.9634,3.964,3.9643,3.9643,3.9642,3.9644,3.9642,3.9639,3.964,3.964,3.964,3.964,3.964,3.964,3.9455,3.9472,3.9481,3.9502,3.9514,3.9529,3.9538,3.9549,3.9559,3.9577,3.9589,3.9597,3.961,3.9624,3.9636,3.9639,3.9643,3.9642,3.9646,3.9644,3.9644,3.9644,3.9642,3.9643,3.9643,3.9647,3.9647,3.9647]}]]